CW8399 Weather Reports


Display with metric or nautical units.
time (UTC)temp
F
wind
direction
speed
MPH
gust
MPH
rain 1hr
in
rain 24hr
in
rain mn
in
humidity
%
barometer
mb
20260904041832 87 0 2.0 4.0 0.00 0.00 0.00
20260904041339 87 0 1.0 6.0 0.00 0.00 0.00
20260904040832 87 0 2.0 6.0 0.00 0.00 0.00
20260904035835 88 0 3.0 7.0 0.00 0.00 0.00
20260904034821 88 351 4.0 11.0 0.00 0.00 0.00
20260904034343 88 347 6.0 11.0 0.00 0.00 0.00
20260904033323 88 0 6.0 10.0 0.00 0.00 0.00
20260904032328 89 359 6.0 11.0 0.00 0.00 0.00
20260904031829 89 343 6.0 10.0 0.00 0.00 0.00
20260904031332 89 0 6.0 12.0 0.00 0.00 0.00
20260904030826 89 353 8.0 12.0 0.00 0.00 0.00
20260904030325 89 358 6.0 9.0 0.00 0.00 0.00
20260904025826 90 358 6.0 9.0 0.00 0.00 0.00
20260904025325 90 0 3.0 8.0 0.00 0.00 0.00
20260904023828 90 0 7.0 11.0 0.00 0.00 0.00
20260904023328 91 357 5.0 11.0 0.00 0.00 0.00
20260904022830 91 359 6.0 14.0 0.00 0.00 0.00
20260904021817 91 0 9.0 16.0 0.00 0.00 0.00
20260904021340 92 0 7.0 18.0 0.00 0.00 0.00
20260904020818 92 0 8.0 18.0 0.00 0.00 0.00
20260904020320 92 0 8.0 17.0 0.00 0.00 0.00
20260904015819 93 358 6.0 17.0 0.00 0.00 0.00
20260904015322 93 0 7.0 16.0 0.00 0.00 0.00
20260904014824 94 0 6.0 14.0 0.00 0.00 0.00
20260904014343 94 358 7.0 13.0 0.00 0.00 0.00
20260904013834 94 0 7.0 17.0 0.00 0.00 0.00
20260904013335 94 0 9.0 17.0 0.00 0.00 0.00
20260904012836 95 0 7.0 17.0 0.00 0.00 0.00
20260904012337 95 359 7.0 16.0 0.00 0.00 0.00
20260904011820 95 0 6.0 17.0 0.00 0.00 0.00
20260904011340 96 0 12.0 17.0 0.00 0.00 0.00
20260904010833 96 359 11.0 17.0 0.00 0.00 0.00
20260904010336 96 0 7.0 13.0 0.00 0.00 0.00
20260904005837 96 358 8.0 13.0 0.00 0.00 0.00
20260904004344 96 354 13.0 20.0 0.00 0.00 0.00
20260904003836 96 359 7.0 23.0 0.00 0.00 0.00
20260904003337 96 358 12.0 23.0 0.00 0.00 0.00
20260904002838 96 347 8.0 23.0 0.00 0.00 0.00
20260904002318 95 359 15.0 23.0 0.00 0.00 0.00
20260904001819 96 0 8.0 22.0 0.00 0.00 0.00
20260904001341 96 350 13.0 22.0 0.00 0.00 0.00
20260904000832 96 0 11.0 18.0 0.00 0.00 0.00
20260904000335 96 0 8.0 20.0 0.00 0.00 0.00
20260903235835 96 357 10.0 20.0 0.00 0.00 0.00
20260903234840 96 358 9.0 19.0 0.00 0.00 0.00
20260903234334 96 0 8.0 16.0 0.00 0.00 0.00
20260903233838 96 359 7.0 19.0 0.00 0.00 0.00
20260903233318 96 358 13.0 19.0 0.00 0.00 0.00
20260903232821 96 357 10.0 19.0 0.00 0.00 0.00
20260903232320 96 349 11.0 19.0 0.00 0.00 0.00
20260903231821 96 359 2.0 14.0 0.00 0.00 0.00
20260903231345 96 334 7.0 19.0 0.00 0.00 0.00
20260903230837 96 330 10.0 21.0 0.00 0.00 0.00
20260903230318 96 356 14.0 21.0 0.00 0.00 0.00
20260903225820 96 351 7.0 18.0 0.00 0.00 0.00
20260903225322 96 0 12.0 18.0 0.00 0.00 0.00
20260903224823 96 0 9.0 19.0 0.00 0.00 0.00
20260903224343 96 0 8.0 19.0 0.00 0.00 0.00
20260903223836 96 359 9.0 19.0 0.00 0.00 0.00
20260903223336 96 0 6.0 19.0 0.00 0.00 0.00
20260903222818 96 346 9.0 19.0 0.00 0.00 0.00
20260903222318 96 0 9.0 19.0 0.00 0.00 0.00
20260903221837 96 354 8.0 16.0 0.00 0.00 0.00
20260903220834 96 0 6.0 15.0 0.00 0.00 0.00
20260903220335 96 0 8.0 20.0 0.00 0.00 0.00
20260903215835 96 0 14.0 23.0 0.00 0.00 0.00
20260903215337 96 358 14.0 23.0 0.00 0.00 0.00
20260903214839 96 356 10.0 22.0 0.00 0.00 0.00
20260903214328 96 354 11.0 20.0 0.00 0.00 0.00
20260903213830 96 359 10.0 20.0 0.00 0.00 0.00
20260903213331 96 0 11.0 18.0 0.00 0.00 0.00
20260903212838 96 359 7.0 18.0 0.00 0.00 0.00
20260903212339 96 0 7.0 13.0 0.00 0.00 0.00
20260903211837 96 355 10.0 13.0 0.00 0.00 0.00
20260903211338 96 344 6.0 17.0 0.00 0.00 0.00
20260903210829 96 354 12.0 18.0 0.00 0.00 0.00
20260903210331 96 354 12.0 18.0 0.00 0.00 0.00
20260903205831 96 0 9.0 17.0 0.00 0.00 0.00
20260903205334 96 346 11.0 17.0 0.00 0.00 0.00
20260903204836 96 358 10.0 17.0 0.00 0.00 0.00
20260903204336 96 351 10.0 17.0 0.00 0.00 0.00
20260903203331 95 358 10.0 19.0 0.00 0.00 0.00
20260903202832 95 357 9.0 16.0 0.00 0.00 0.00
20260903202334 95 347 10.0 16.0 0.00 0.00 0.00
20260903201839 95 358 10.0 18.0 0.00 0.00 0.00
20260903201342 95 0 9.0 17.0 0.00 0.00 0.00
20260903200835 94 351 9.0 18.0 0.00 0.00 0.00
20260903200336 94 355 10.0 18.0 0.00 0.00 0.00
20260903195837 94 359 7.0 17.0 0.00 0.00 0.00
20260903194820 94 357 10.0 15.0 0.00 0.00 0.00
20260903194339 93 0 8.0 15.0 0.00 0.00 0.00
20260903193830 93 359 10.0 19.0 0.00 0.00 0.00
20260903193330 93 0 9.0 19.0 0.00 0.00 0.00
20260903192831 93 356 8.0 15.0 0.00 0.00 0.00
20260903191835 92 0 9.0 18.0 0.00 0.00 0.00
20260903190830 92 350 8.0 20.0 0.00 0.00 0.00
20260903190331 92 358 11.0 20.0 0.00 0.00 0.00
20260903185836 91 358 10.0 17.0 0.00 0.00 0.00
20260903185337 91 359 7.0 14.0 0.00 0.00 0.00
20260903184837 91 359 8.0 15.0 0.00 0.00 0.00
20260903184341 91 0 10.0 15.0 0.00 0.00 0.00
20260903183834 90 358 8.0 15.0 0.00 0.00 0.00
20260903183335 90 0 7.0 22.0 0.00 0.00 0.00
20260903182837 90 355 12.0 22.0 0.00 0.00 0.00
20260903181824 89 352 9.0 17.0 0.00 0.00 0.00
20260903181346 89 0 11.0 17.0 0.00 0.00 0.00
20260903180838 88 352 7.0 18.0 0.00 0.00 0.00
20260903180320 88 346 12.0 18.0 0.00 0.00 0.00
20260903175821 88 354 7.0 14.0 0.00 0.00 0.00
20260903175327 87 344 7.0 16.0 0.00 0.00 0.00
20260903174831 87 358 7.0 17.0 0.00 0.00 0.00
20260903174331 86 0 8.0 17.0 0.00 0.00 0.00
20260903173823 86 356 7.0 15.0 0.00 0.00 0.00
20260903173325 86 357 9.0 16.0 0.00 0.00 0.00
20260903172825 85 348 9.0 16.0 0.00 0.00 0.00
20260903172325 85 0 8.0 15.0 0.00 0.00 0.00
20260903171828 85 0 8.0 15.0 0.00 0.00 0.00
20260903171328 85 0 9.0 13.0 0.00 0.00 0.00
20260903170323 84 0 9.0 16.0 0.00 0.00 0.00
20260903165824 84 353 4.0 16.0 0.00 0.00 0.00
20260903165325 83 352 8.0 18.0 0.00 0.00 0.00
20260903164826 83 352 10.0 18.0 0.00 0.00 0.00
20260903164330 83 357 8.0 16.0 0.00 0.00 0.00
20260903163823 82 359 6.0 11.0 0.00 0.00 0.00
20260903161344 81 359 7.0 12.0 0.00 0.00 0.00
20260903160835 80 0 6.0 12.0 0.00 0.00 0.00
20260903160336 80 352 8.0 12.0 0.00 0.00 0.00
20260903155836 80 357 6.0 11.0 0.00 0.00 0.00
20260903155336 80 358 6.0 15.0 0.00 0.00 0.00
20260903154342 79 0 9.0 13.0 0.00 0.00 0.00
20260903153833 79 351 5.0 12.0 0.00 0.00 0.00
20260903153335 79 354 7.0 11.0 0.00 0.00 0.00
20260903152837 78 341 7.0 11.0 0.00 0.00 0.00
20260903152338 78 358 7.0 12.0 0.00 0.00 0.00
20260903151821 78 0 7.0 12.0 0.00 0.00 0.00
20260903150838 78 356 3.0 7.0 0.00 0.00 0.00
20260903150317 77 359 3.0 6.0 0.00 0.00 0.00
20260903145821 77 0 1.0 3.0 0.00 0.00 0.00
20260903144828 77 0 0.0 2.0 0.00 0.00 0.00
20260903143824 76 0 0.0 3.0 0.00 0.00 0.00
20260903143325 76 0 0.0 7.0 0.00 0.00 0.00
20260903142826 76 335 4.0 7.0 0.00 0.00 0.00
20260903142326 76 0 1.0 4.0 0.00 0.00 0.00
20260903141829 76 0 2.0 3.0 0.00 0.00 0.00
20260903141330 76 0 2.0 5.0 0.00 0.00 0.00
20260903140821 76 0 2.0 6.0 0.00 0.00 0.00
20260903140324 76 340 2.0 5.0 0.00 0.00 0.00
20260903135828 76 0 4.0 5.0 0.00 0.00 0.00
20260903135329 76 0 0.0 5.0 0.00 0.00 0.00
20260903134830 76 272 3.0 7.0 0.00 0.00 0.00
20260903134332 76 0 3.0 9.0 0.00 0.00 0.00
20260903133825 76 358 4.0 10.0 0.00 0.00 0.00
20260903132830 76 359 5.0 12.0 0.00 0.00 0.00
20260903132331 76 358 5.0 12.0 0.00 0.00 0.00
20260903131834 76 342 7.0 12.0 0.00 0.00 0.00
20260903131337 76 353 4.0 11.0 0.00 0.00 0.00
20260903130829 76 357 6.0 11.0 0.00 0.00 0.00
20260903130330 76 346 7.0 11.0 0.00 0.00 0.00
20260903125827 76 358 4.0 11.0 0.00 0.00 0.00
20260903125329 76 0 2.0 8.0 0.00 0.00 0.00
20260903124831 76 350 4.0 8.0 0.00 0.00 0.00
20260903123833 76 0 5.0 6.0 0.00 0.00 0.00
20260903123333 76 0 3.0 6.0 0.00 0.00 0.00
20260903122835 76 0 3.0 6.0 0.00 0.00 0.00
20260903122335 76 229 3.0 6.0 0.00 0.00 0.00
20260903121835 77 0 4.0 6.0 0.00 0.00 0.00
20260903121337 77 226 2.0 8.0 0.00 0.00 0.00
20260903120830 77 101 2.0 8.0 0.00 0.00 0.00
20260903120331 77 355 3.0 8.0 0.00 0.00 0.00
20260903115833 77 0 3.0 7.0 0.00 0.00 0.00
20260903115332 77 0 3.0 7.0 0.00 0.00 0.00
20260903114834 78 359 1.0 6.0 0.00 0.00 0.00
20260903114334 78 0 2.0 10.0 0.00 0.00 0.00
20260903113827 78 348 5.0 12.0 0.00 0.00 0.00
20260903113330 78 0 8.0 13.0 0.00 0.00 0.00
20260903112830 78 0 6.0 13.0 0.00 0.00 0.00
20260903112329 78 357 6.0 12.0 0.00 0.00 0.00
20260903111832 78 0 7.0 12.0 0.00 0.00 0.00
20260903111332 78 355 6.0 11.0 0.00 0.00 0.00
20260903110824 78 351 6.0 11.0 0.00 0.00 0.00
20260903110338 78 358 6.0 11.0 0.00 0.00 0.00
20260903105820 78 0 6.0 11.0 0.00 0.00 0.00
20260903105322 79 0 4.0 8.0 0.00 0.00 0.00
20260903104844 79 333 5.0 8.0 0.00 0.00 0.00
20260903104317 79 357 6.0 8.0 0.00 0.00 0.00
20260903103821 79 32 3.0 7.0 0.00 0.00 0.00
20260903103339 79 358 4.0 6.0 0.00 0.00 0.00
20260903102822 79 83 4.0 9.0 0.00 0.00 0.00
20260903102323 79 0 4.0 9.0 0.00 0.00 0.00
20260903101825 79 358 5.0 10.0 0.00 0.00 0.00
20260903101326 79 0 5.0 10.0 0.00 0.00 0.00
20260903100820 79 18 5.0 9.0 0.00 0.00 0.00
20260903100319 79 355 4.0 8.0 0.00 0.00 0.00
20260903095819 80 350 2.0 5.0 0.00 0.00 0.00
20260903094830 80 0 3.0 6.0 0.00 0.00 0.00
20260903094333 80 3 3.0 6.0 0.00 0.00 0.00
20260903093327 80 0 4.0 13.0 0.00 0.00 0.00
20260903092829 80 0 4.0 15.0 0.00 0.00 0.00
20260903092327 80 352 8.0 15.0 0.00 0.00 0.00
20260903091830 81 0 8.0 15.0 0.00 0.00 0.00
20260903090830 81 357 7.0 14.0 0.00 0.00 0.00
20260903090331 81 0 7.0 14.0 0.00 0.00 0.00
20260903085334 81 356 7.0 13.0 0.00 0.00 0.00
20260903084833 81 351 6.0 13.0 0.00 0.00 0.00
20260903084335 81 0 4.0 11.0 0.00 0.00 0.00
20260903083331 82 0 5.0 13.0 0.00 0.00 0.00
20260903082834 82 0 4.0 13.0 0.00 0.00 0.00
20260903082335 82 0 7.0 10.0 0.00 0.00 0.00
20260903080822 82 0 7.0 11.0 0.00 0.00 0.00
20260903080335 82 357 7.0 13.0 0.00 0.00 0.00
20260903075835 83 0 5.0 13.0 0.00 0.00 0.00
20260903075336 83 358 6.0 13.0 0.00 0.00 0.00
20260903074823 83 0 8.0 11.0 0.00 0.00 0.00
20260903074344 83 0 7.0 11.0 0.00 0.00 0.00
20260903073836 83 0 7.0 17.0 0.00 0.00 0.00
20260903072820 83 359 12.0 17.0 0.00 0.00 0.00
20260903072321 83 0 8.0 15.0 0.00 0.00 0.00
20260903071826 83 0 9.0 15.0 0.00 0.00 0.00
20260903071329 83 0 10.0 15.0 0.00 0.00 0.00
20260903070821 83 359 9.0 16.0 0.00 0.00 0.00
20260903070321 83 357 10.0 16.0 0.00 0.00 0.00
20260903065821 83 0 10.0 16.0 0.00 0.00 0.00
20260903064826 83 337 7.0 14.0 0.00 0.00 0.00
20260903064330 83 348 9.0 14.0 0.00 0.00 0.00
20260903063824 84 357 8.0 12.0 0.00 0.00 0.00
20260903062833 84 344 6.0 13.0 0.00 0.00 0.00
20260903062334 84 359 8.0 13.0 0.00 0.00 0.00
20260903061836 84 356 6.0 13.0 0.00 0.00 0.00
20260903061338 84 355 5.0 9.0 0.00 0.00 0.00
20260903060830 84 359 5.0 10.0 0.00 0.00 0.00
20260903060330 84 358 4.0 10.0 0.00 0.00 0.00
20260903055828 84 343 5.0 9.0 0.00 0.00 0.00
20260903055331 84 356 6.0 9.0 0.00 0.00 0.00
20260903054829 84 331 4.0 8.0 0.00 0.00 0.00
20260903053827 85 354 6.0 9.0 0.00 0.00 0.00
20260903053327 85 359 6.0 9.0 0.00 0.00 0.00
20260903052830 85 0 5.0 8.0 0.00 0.00 0.00
20260903051338 86 354 5.0 11.0 0.00 0.00 0.00
20260903050832 86 0 6.0 11.0 0.00 0.00 0.00
20260903050334 86 0 6.0 11.0 0.00 0.00 0.00
20260903045337 86 358 9.0 17.0 0.00 0.00 0.00
20260903044837 86 359 9.0 17.0 0.00 0.00 0.00
20260903044340 86 351 8.0 19.0 0.00 0.00 0.00
20260903043830 86 358 7.0 19.0 0.00 0.00 0.00
20260903043332 86 0 9.0 16.0 0.00 0.00 0.00
20260903042835 86 358 10.0 16.0 0.00 0.00 0.00
20260903042336 86 0 7.0 13.0 0.00 0.00 0.00